Time,TemperatureF,DewpointF,PressureIn,WindDirection,WindDirectionDegrees,WindSpeedMPH,WindSpeedGustMPH,Humidity,HourlyPrecipIn,Conditions,Clouds,dailyrainin,SoftwareType,DateUTC
2013-03-04 00:00:00,33.3,25.2,29.57,NE,45,0.0,2.0,72,0.00,,,0.00,meteohub,2013-03-04 05:00:00,
2013-03-04 00:01:00,33.3,25.2,29.57,NNE,23,1.0,2.0,72,0.00,,,0.00,meteohub,2013-03-04 05:01:00,
2013-03-04 00:02:00,33.3,25.2,29.57,NW,315,1.0,2.0,72,0.00,,,0.00,meteohub,2013-03-04 05:02:00,
2013-03-04 00:07:00,33.3,25.2,29.56,West,270,1.0,2.0,72,0.00,,,0.00,meteohub,2013-03-04 05:07:00,
2013-03-04 00:12:00,33.3,25.2,29.57,North,0,2.0,2.0,72,0.00,,,0.00,meteohub,2013-03-04 05:12:00,
2013-03-04 00:17:00,33.1,24.6,29.57,East,90,2.0,2.0,71,0.00,,,0.00,meteohub,2013-03-04 05:17:00,
2013-03-04 00:22:00,33.1,24.6,29.57,NE,45,1.0,2.0,71,0.00,,,0.00,meteohub,2013-03-04 05:22:00,
2013-03-04 00:27:00,33.1,24.4,29.57,ENE,68,2.0,2.0,70,0.00,,,0.00,meteohub,2013-03-04 05:27:00,
2013-03-04 00:32:00,33.1,24.4,29.57,NW,315,0.0,2.0,70,0.00,,,0.00,meteohub,2013-03-04 05:32:00,
2013-03-04 00:37:00,33.1,24.4,29.57,NE,45,2.0,2.0,70,0.00,,,0.00,meteohub,2013-03-04 05:37:00,
2013-03-04 00:42:00,32.9,23.9,29.57,NE,45,1.0,2.0,69,0.00,,,0.00,meteohub,2013-03-04 05:42:00,
2013-03-04 00:47:00,32.7,23.4,29.56,NW,315,0.0,2.0,68,0.00,,,0.00,meteohub,2013-03-04 05:47:00,
2013-03-04 00:52:00,32.5,23.2,29.57,West,270,1.0,2.0,68,0.00,,,0.00,meteohub,2013-03-04 05:52:00,
2013-03-04 00:57:00,32.5,22.8,29.57,WNW,293,2.0,5.0,67,0.00,,,0.00,meteohub,2013-03-04 05:57:00,
2013-03-04 01:02:00,32.5,22.8,29.57,North,0,1.0,5.0,67,0.00,,,0.00,meteohub,2013-03-04 06:02:00,
2013-03-04 01:07:00,32.5,22.8,29.57,NW,315,1.0,5.0,67,0.00,,,0.00,meteohub,2013-03-04 06:07:00,
2013-03-04 01:12:00,32.5,22.8,29.57,West,270,2.0,3.0,67,0.00,,,0.00,meteohub,2013-03-04 06:12:00,
2013-03-04 01:17:00,32.5,22.8,29.57,North,0,1.0,2.0,67,0.00,,,0.00,meteohub,2013-03-04 06:17:00,
2013-03-04 01:22:00,32.5,22.8,29.57,North,0,1.0,2.0,67,0.00,,,0.00,meteohub,2013-03-04 06:22:00,
2013-03-04 01:27:00,32.5,22.8,29.57,West,270,2.0,2.0,67,0.00,,,0.00,meteohub,2013-03-04 06:27:00,
2013-03-04 01:32:00,32.7,22.6,29.57,West,270,1.0,2.0,66,0.00,,,0.00,meteohub,2013-03-04 06:32:00,
2013-03-04 01:37:00,32.7,22.6,29.57,North,0,1.0,2.0,66,0.00,,,0.00,meteohub,2013-03-04 06:37:00,
2013-03-04 01:42:00,32.7,22.6,29.57,East,90,1.0,2.0,66,0.00,,,0.00,meteohub,2013-03-04 06:42:00,
2013-03-04 01:47:00,32.7,22.6,29.58,NE,45,1.0,2.0,66,0.00,,,0.00,meteohub,2013-03-04 06:47:00,
2013-03-04 01:52:00,32.5,22.5,29.58,North,0,0.0,2.0,66,0.00,,,0.00,meteohub,2013-03-04 06:52:00,
2013-03-04 01:57:00,32.5,22.5,29.57,North,0,2.0,2.0,66,0.00,,,0.00,meteohub,2013-03-04 06:57:00,
2013-03-04 02:02:00,32.5,22.5,29.57,NNW,338,2.0,2.0,66,0.00,,,0.00,meteohub,2013-03-04 07:02:00,
2013-03-04 02:07:00,32.5,22.5,29.57,NW,315,1.0,2.0,66,0.00,,,0.00,meteohub,2013-03-04 07:07:00,
2013-03-04 02:12:00,32.5,22.5,29.57,North,0,0.0,2.0,66,0.00,,,0.00,meteohub,2013-03-04 07:12:00,
2013-03-04 02:17:00,32.5,22.1,29.57,NE,45,2.0,2.0,65,0.00,,,0.00,meteohub,2013-03-04 07:17:00,
2013-03-04 02:22:00,32.5,22.1,29.57,East,90,2.0,4.0,65,0.00,,,0.00,meteohub,2013-03-04 07:22:00,
2013-03-04 02:27:00,32.4,21.9,29.57,NE,45,2.0,4.0,65,0.00,,,0.00,meteohub,2013-03-04 07:27:00,
2013-03-04 02:32:00,32.4,21.9,29.57,East,90,1.0,4.0,65,0.00,,,0.00,meteohub,2013-03-04 07:32:00,
2013-03-04 02:37:00,32.2,21.7,29.57,East,90,2.0,3.0,65,0.00,,,0.00,meteohub,2013-03-04 07:37:00,
2013-03-04 02:42:00,32.2,21.7,29.57,North,0,1.0,3.0,65,0.00,,,0.00,meteohub,2013-03-04 07:42:00,
2013-03-04 02:47:00,32.0,21.6,29.57,NE,45,1.0,2.0,65,0.00,,,0.00,meteohub,2013-03-04 07:47:00,
2013-03-04 02:52:00,32.0,21.6,29.57,SE,135,2.0,2.0,65,0.00,,,0.00,meteohub,2013-03-04 07:52:00,
2013-03-04 02:57:00,31.8,21.7,29.57,NE,45,0.0,2.0,66,0.00,,,0.00,meteohub,2013-03-04 07:57:00,
2013-03-04 03:02:00,31.6,21.6,29.57,NNE,23,1.0,2.0,66,0.00,,,0.00,meteohub,2013-03-04 08:02:00,
2013-03-04 03:07:00,31.6,21.6,29.57,NNE,23,1.0,2.0,66,0.00,,,0.00,meteohub,2013-03-04 08:07:00,
2013-03-04 03:12:00,31.5,21.4,29.57,East,90,2.0,2.0,66,0.00,,,0.00,meteohub,2013-03-04 08:12:00,
2013-03-04 03:17:00,31.5,21.4,29.57,NNE,23,2.0,2.0,66,0.00,,,0.00,meteohub,2013-03-04 08:17:00,
2013-03-04 03:22:00,31.3,21.2,29.57,East,90,2.0,2.0,66,0.00,,,0.00,meteohub,2013-03-04 08:22:00,
2013-03-04 03:27:00,31.3,21.6,29.57,NE,45,1.0,2.0,67,0.00,,,0.00,meteohub,2013-03-04 08:27:00,
2013-03-04 03:32:00,31.3,21.6,29.57,North,0,2.0,3.0,67,0.00,,,0.00,meteohub,2013-03-04 08:32:00,
2013-03-04 03:37:00,31.1,21.4,29.57,East,90,0.0,3.0,67,0.00,,,0.00,meteohub,2013-03-04 08:37:00,
2013-03-04 03:43:00,30.9,21.2,29.58,East,90,0.0,3.0,67,0.00,,,0.00,meteohub,2013-03-04 08:43:00,
2013-03-04 03:48:00,30.7,21.0,29.58,East,90,0.0,2.0,67,0.00,,,0.00,meteohub,2013-03-04 08:48:00,
2013-03-04 03:53:00,30.6,20.8,29.58,SE,135,2.0,2.0,67,0.00,,,0.00,meteohub,2013-03-04 08:53:00,
2013-03-04 03:58:00,30.6,20.8,29.58,North,0,0.0,4.0,67,0.00,,,0.00,meteohub,2013-03-04 08:58:00,
2013-03-04 04:03:00,30.4,20.7,29.58,North,0,0.0,4.0,67,0.00,,,0.00,meteohub,2013-03-04 09:03:00,
2013-03-04 04:08:00,30.4,20.7,29.58,NW,315,1.0,4.0,67,0.00,,,0.00,meteohub,2013-03-04 09:08:00,
2013-03-04 04:13:00,30.4,21.0,29.58,North,0,1.0,3.0,68,0.00,,,0.00,meteohub,2013-03-04 09:13:00,
2013-03-04 04:18:00,30.2,20.8,29.58,NE,45,2.0,3.0,68,0.00,,,0.00,meteohub,2013-03-04 09:18:00,
2013-03-04 04:23:00,30.2,20.8,29.58,East,90,1.0,1.0,68,0.00,,,0.00,meteohub,2013-03-04 09:23:00,
2013-03-04 04:28:00,30.2,20.8,29.58,North,0,2.0,2.0,68,0.00,,,0.00,meteohub,2013-03-04 09:28:00,
2013-03-04 04:33:00,30.2,20.8,29.58,North,0,2.0,2.0,68,0.00,,,0.00,meteohub,2013-03-04 09:33:00,
2013-03-04 04:38:00,30.4,21.0,29.59,East,90,1.0,3.0,68,0.00,,,0.00,meteohub,2013-03-04 09:38:00,
2013-03-04 04:43:00,30.4,20.7,29.58,North,0,2.0,3.0,67,0.00,,,0.00,meteohub,2013-03-04 09:43:00,
2013-03-04 04:49:00,30.4,20.7,29.58,West,270,0.0,3.0,67,0.00,,,0.00,meteohub,2013-03-04 09:49:00,
2013-03-04 04:54:00,30.4,20.7,29.58,North,0,2.0,3.0,67,0.00,,,0.00,meteohub,2013-03-04 09:54:00,
2013-03-04 04:59:00,30.2,20.3,29.58,SE,135,2.0,3.0,66,0.00,,,0.00,meteohub,2013-03-04 09:59:00,
2013-03-04 05:04:00,30.2,20.3,29.59,East,90,0.0,3.0,66,0.00,,,0.00,meteohub,2013-03-04 10:04:00,
2013-03-04 05:09:00,30.2,19.9,29.58,North,0,4.0,4.0,65,0.00,,,0.00,meteohub,2013-03-04 10:09:00,
2013-03-04 05:14:00,30.2,19.9,29.58,NW,315,2.0,4.0,65,0.00,,,0.00,meteohub,2013-03-04 10:14:00,
2013-03-04 05:19:00,30.0,20.1,29.59,NW,315,0.0,4.0,66,0.00,,,0.00,meteohub,2013-03-04 10:19:00,
2013-03-04 05:24:00,29.8,19.9,29.59,NE,45,1.0,4.0,66,0.00,,,0.00,meteohub,2013-03-04 10:24:00,
2013-03-04 05:29:00,29.8,19.6,29.59,NW,315,2.0,4.0,65,0.00,,,0.00,meteohub,2013-03-04 10:29:00,
2013-03-04 05:34:00,29.8,19.6,29.59,North,0,1.0,4.0,65,0.00,,,0.00,meteohub,2013-03-04 10:34:00,
2013-03-04 05:39:00,29.7,19.4,29.59,NW,315,2.0,4.0,65,0.00,,,0.00,meteohub,2013-03-04 10:39:00,
2013-03-04 05:44:00,29.7,19.4,29.59,NNE,23,2.0,5.0,65,0.00,,,0.00,meteohub,2013-03-04 10:44:00,
2013-03-04 05:50:00,29.7,19.0,29.59,East,90,1.0,5.0,64,0.00,,,0.00,meteohub,2013-03-04 10:50:00,
2013-03-04 05:55:00,29.7,19.0,29.59,NE,45,1.0,5.0,64,0.00,,,0.00,meteohub,2013-03-04 10:55:00,
2013-03-04 06:00:00,29.5,18.9,29.59,NW,315,1.0,2.0,64,0.00,,,0.00,meteohub,2013-03-04 11:00:00,
2013-03-04 06:05:00,29.5,18.9,29.59,NE,45,2.0,4.0,64,0.00,,,0.00,meteohub,2013-03-04 11:05:00,
2013-03-04 06:10:00,29.5,18.9,29.59,East,90,1.0,4.0,64,0.00,,,0.00,meteohub,2013-03-04 11:10:00,
2013-03-04 06:15:00,29.5,18.9,29.59,NE,45,6.0,6.0,64,0.00,,,0.00,meteohub,2013-03-04 11:15:00,
2013-03-04 06:20:00,29.5,18.9,29.60,East,90,2.0,6.0,64,0.00,,,0.00,meteohub,2013-03-04 11:20:00,
2013-03-04 06:25:00,29.5,18.9,29.59,North,0,0.0,6.0,64,0.00,,,0.00,meteohub,2013-03-04 11:25:00,
2013-03-04 06:30:00,29.3,18.7,29.60,NE,45,2.0,6.0,64,0.00,,,0.00,meteohub,2013-03-04 11:30:00,
2013-03-04 06:35:00,29.5,18.9,29.60,East,90,1.0,2.0,64,0.00,,,0.00,meteohub,2013-03-04 11:35:00,
2013-03-04 06:40:00,29.5,18.9,29.60,North,0,1.0,3.0,64,0.00,,,0.00,meteohub,2013-03-04 11:40:00,
2013-03-04 06:45:00,29.5,18.9,29.60,North,0,2.0,4.0,64,0.00,,,0.00,meteohub,2013-03-04 11:45:00,
2013-03-04 06:51:00,29.5,18.9,29.60,NE,45,2.0,4.0,64,0.00,,,0.00,meteohub,2013-03-04 11:51:00,
2013-03-04 06:56:00,29.5,18.9,29.60,East,90,3.0,4.0,64,0.00,,,0.00,meteohub,2013-03-04 11:56:00,
2013-03-04 07:01:00,29.5,18.5,29.60,NE,45,1.0,3.0,63,0.00,,,0.00,meteohub,2013-03-04 12:01:00,
2013-03-04 07:06:00,29.7,18.7,29.60,NE,45,1.0,3.0,63,0.00,,,0.00,meteohub,2013-03-04 12:06:00,
2013-03-04 07:11:00,29.7,18.7,29.61,West,270,2.0,3.0,63,0.00,,,0.00,meteohub,2013-03-04 12:11:00,
2013-03-04 07:16:00,29.8,18.9,29.60,North,0,2.0,3.0,63,0.00,,,0.00,meteohub,2013-03-04 12:16:00,
2013-03-04 07:21:00,30.0,19.0,29.60,North,0,2.0,2.0,63,0.00,,,0.00,meteohub,2013-03-04 12:21:00,
2013-03-04 07:26:00,30.0,18.5,29.61,North,0,4.0,4.0,62,0.00,,,0.00,meteohub,2013-03-04 12:26:00,
2013-03-04 07:31:00,30.2,18.3,29.61,NE,45,2.0,7.0,61,0.00,,,0.00,meteohub,2013-03-04 12:31:00,
2013-03-04 07:36:00,30.7,18.9,29.61,NW,315,0.0,7.0,61,0.00,,,0.00,meteohub,2013-03-04 12:36:00,
2013-03-04 07:41:00,32.0,19.2,29.61,North,0,2.0,7.0,59,0.00,,,0.00,meteohub,2013-03-04 12:41:00,
2013-03-04 07:46:00,32.9,19.8,29.61,North,0,2.0,4.0,58,0.00,,,0.00,meteohub,2013-03-04 12:46:00,
2013-03-04 07:52:00,34.2,19.8,29.61,West,270,2.0,4.0,55,0.00,,,0.00,meteohub,2013-03-04 12:52:00,
2013-03-04 07:57:00,34.7,18.9,29.61,NW,315,3.0,4.0,52,0.00,,,0.00,meteohub,2013-03-04 12:57:00,
2013-03-04 08:02:00,35.1,18.7,29.61,North,0,4.0,4.0,51,0.00,,,0.00,meteohub,2013-03-04 13:02:00,
2013-03-04 08:07:00,37.0,20.1,29.60,NE,45,2.0,4.0,50,0.00,,,0.00,meteohub,2013-03-04 13:07:00,
2013-03-04 08:12:00,38.7,22.6,29.60,East,90,4.0,4.0,52,0.00,,,0.00,meteohub,2013-03-04 13:12:00,
2013-03-04 08:17:00,37.6,20.7,29.60,South,180,3.0,8.0,50,0.00,,,0.00,meteohub,2013-03-04 13:17:00,
2013-03-04 08:22:00,36.9,18.0,29.60,North,0,2.0,8.0,46,0.00,,,0.00,meteohub,2013-03-04 13:22:00,
2013-03-04 08:27:00,36.3,17.6,29.60,NE,45,3.0,8.0,46,0.00,,,0.00,meteohub,2013-03-04 13:27:00,
2013-03-04 08:32:00,38.1,21.2,29.60,North,0,2.0,4.0,50,0.00,,,0.00,meteohub,2013-03-04 13:32:00,
2013-03-04 08:37:00,39.9,22.3,29.60,NW,315,1.0,4.0,49,0.00,,,0.00,meteohub,2013-03-04 13:37:00,
2013-03-04 08:42:00,41.9,22.1,29.60,SE,135,2.0,4.0,45,0.00,,,0.00,meteohub,2013-03-04 13:42:00,
2013-03-04 08:47:00,42.4,22.1,29.60,East,90,2.0,4.0,44,0.00,,,0.00,meteohub,2013-03-04 13:47:00,
2013-03-04 08:52:00,41.4,19.9,29.59,NW,315,2.0,3.0,42,0.00,,,0.00,meteohub,2013-03-04 13:52:00,
2013-03-04 08:57:00,41.0,20.3,29.60,North,0,3.0,3.0,43,0.00,,,0.00,meteohub,2013-03-04 13:57:00,
2013-03-04 09:02:00,40.6,20.5,29.59,West,270,3.0,3.0,44,0.00,,,0.00,meteohub,2013-03-04 14:02:00,
2013-03-04 09:07:00,40.1,19.9,29.59,NE,45,2.0,6.0,44,0.00,,,0.00,meteohub,2013-03-04 14:07:00,
2013-03-04 09:12:00,40.8,21.2,29.58,West,270,2.0,6.0,45,0.00,,,0.00,meteohub,2013-03-04 14:12:00,
2013-03-04 09:17:00,41.0,20.8,29.59,NW,315,3.0,6.0,44,0.00,,,0.00,meteohub,2013-03-04 14:17:00,
2013-03-04 09:22:00,41.5,20.7,29.58,West,270,2.0,4.0,43,0.00,,,0.00,meteohub,2013-03-04 14:22:00,
2013-03-04 09:27:00,42.4,21.6,29.58,NE,45,2.0,4.0,43,0.00,,,0.00,meteohub,2013-03-04 14:27:00,
2013-03-04 09:32:00,43.0,20.3,29.58,East,90,1.0,6.0,40,0.00,,,0.00,meteohub,2013-03-04 14:32:00,
2013-03-04 09:37:00,43.9,21.2,29.58,SE,135,2.0,7.0,40,0.00,,,0.00,meteohub,2013-03-04 14:37:00,
2013-03-04 09:42:00,44.4,21.6,29.58,ESE,113,4.0,7.0,40,0.00,,,0.00,meteohub,2013-03-04 14:42:00,
2013-03-04 09:47:00,44.1,20.7,29.58,NW,315,2.0,7.0,39,0.00,,,0.00,meteohub,2013-03-04 14:47:00,
2013-03-04 09:52:00,44.6,20.5,29.59,NW,315,4.0,5.0,38,0.00,,,0.00,meteohub,2013-03-04 14:52:00,
2013-03-04 09:57:00,45.0,20.8,29.59,North,0,6.0,6.0,38,0.00,,,0.00,meteohub,2013-03-04 14:57:00,
2013-03-04 10:02:00,44.4,21.0,29.59,NW,315,2.0,6.0,39,0.00,,,0.00,meteohub,2013-03-04 15:02:00,
2013-03-04 10:07:00,45.0,20.8,29.58,East,90,2.0,6.0,38,0.00,,,0.00,meteohub,2013-03-04 15:07:00,
2013-03-04 10:12:00,45.1,21.0,29.58,North,0,4.0,6.0,38,0.00,,,0.00,meteohub,2013-03-04 15:12:00,
2013-03-04 10:17:00,44.4,21.0,29.58,NW,315,3.0,4.0,39,0.00,,,0.00,meteohub,2013-03-04 15:17:00,
2013-03-04 10:22:00,43.3,20.1,29.58,North,0,2.0,5.0,39,0.00,,,0.00,meteohub,2013-03-04 15:22:00,
2013-03-04 10:27:00,43.3,20.1,29.58,NNE,23,4.0,5.0,39,0.00,,,0.00,meteohub,2013-03-04 15:27:00,
2013-03-04 10:32:00,43.3,20.1,29.57,North,0,2.0,5.0,39,0.00,,,0.00,meteohub,2013-03-04 15:32:00,
2013-03-04 10:37:00,43.0,19.8,29.57,NE,45,2.0,4.0,39,0.00,,,0.00,meteohub,2013-03-04 15:37:00,
2013-03-04 10:42:00,44.1,20.7,29.57,East,90,2.0,5.0,39,0.00,,,0.00,meteohub,2013-03-04 15:42:00,
2013-03-04 10:47:00,45.0,20.8,29.57,SE,135,1.0,5.0,38,0.00,,,0.00,meteohub,2013-03-04 15:47:00,
2013-03-04 10:52:00,45.5,21.4,29.57,East,90,2.0,5.0,38,0.00,,,0.00,meteohub,2013-03-04 15:52:00,
2013-03-04 10:57:00,45.3,21.2,29.58,East,90,3.0,4.0,38,0.00,,,0.00,meteohub,2013-03-04 15:57:00,
2013-03-04 11:02:00,44.8,19.4,29.57,West,270,5.0,8.0,36,0.00,,,0.00,meteohub,2013-03-04 16:02:00,
2013-03-04 11:07:00,45.1,21.0,29.57,ENE,68,4.0,8.0,38,0.00,,,0.00,meteohub,2013-03-04 16:07:00,
2013-03-04 11:12:00,46.4,20.3,29.57,SE,135,4.0,8.0,35,0.00,,,0.00,meteohub,2013-03-04 16:12:00,
2013-03-04 11:17:00,45.3,18.7,29.57,ENE,68,2.0,5.0,34,0.00,,,0.00,meteohub,2013-03-04 16:17:00,
2013-03-04 11:22:00,44.6,18.7,29.57,NW,315,2.0,5.0,35,0.00,,,0.00,meteohub,2013-03-04 16:22:00,
2013-03-04 11:27:00,45.0,20.8,29.57,North,0,2.0,5.0,38,0.00,,,0.00,meteohub,2013-03-04 16:27:00,
2013-03-04 11:32:00,46.2,20.7,29.57,East,90,4.0,4.0,36,0.00,,,0.00,meteohub,2013-03-04 16:32:00,
2013-03-04 11:37:00,45.3,18.7,29.57,NE,45,3.0,4.0,34,0.00,,,0.00,meteohub,2013-03-04 16:37:00,
2013-03-04 11:42:00,44.4,19.0,29.57,South,180,2.0,4.0,36,0.00,,,0.00,meteohub,2013-03-04 16:42:00,
2013-03-04 11:47:00,43.9,19.2,29.57,North,0,2.0,5.0,37,0.00,,,0.00,meteohub,2013-03-04 16:47:00,
2013-03-04 11:52:00,43.3,20.1,29.57,WNW,293,2.0,5.0,39,0.00,,,0.00,meteohub,2013-03-04 16:52:00,
2013-03-04 11:57:00,43.2,19.9,29.57,SE,135,2.0,5.0,39,0.00,,,0.00,meteohub,2013-03-04 16:57:00,
2013-03-04 12:02:00,43.3,20.1,29.57,SE,135,2.0,5.0,39,0.00,,,0.00,meteohub,2013-03-04 17:02:00,
2013-03-04 12:07:00,43.7,20.3,29.57,South,180,3.0,5.0,39,0.00,,,0.00,meteohub,2013-03-04 17:07:00,
2013-03-04 12:12:00,43.7,20.3,29.57,NW,315,2.0,4.0,39,0.00,,,0.00,meteohub,2013-03-04 17:12:00,
2013-03-04 12:17:00,43.9,20.5,29.57,NW,315,6.0,6.0,39,0.00,,,0.00,meteohub,2013-03-04 17:17:00,
2013-03-04 12:22:00,44.1,20.7,29.56,NE,45,2.0,6.0,39,0.00,,,0.00,meteohub,2013-03-04 17:22:00,
2013-03-04 12:27:00,44.8,20.7,29.56,North,0,3.0,6.0,38,0.00,,,0.00,meteohub,2013-03-04 17:27:00,
2013-03-04 12:32:00,45.9,21.7,29.56,North,0,2.0,6.0,38,0.00,,,0.00,meteohub,2013-03-04 17:32:00,
2013-03-04 12:37:00,45.3,19.9,29.56,East,90,2.0,6.0,36,0.00,,,0.00,meteohub,2013-03-04 17:37:00,
2013-03-04 12:42:00,45.1,19.0,29.56,North,0,2.0,8.0,35,0.00,,,0.00,meteohub,2013-03-04 17:42:00,
2013-03-04 12:47:00,44.1,20.1,29.56,South,180,2.0,8.0,38,0.00,,,0.00,meteohub,2013-03-04 17:47:00,
2013-03-04 12:52:00,44.2,20.8,29.56,WNW,293,2.0,5.0,39,0.00,,,0.00,meteohub,2013-03-04 17:52:00,
2013-03-04 12:57:00,44.8,20.7,29.56,NW,315,3.0,6.0,38,0.00,,,0.00,meteohub,2013-03-04 17:57:00,
2013-03-04 13:02:00,44.6,20.5,29.56,East,90,6.0,6.0,38,0.00,,,0.00,meteohub,2013-03-04 18:02:00,
2013-03-04 13:07:00,43.3,20.1,29.56,SE,135,2.0,6.0,39,0.00,,,0.00,meteohub,2013-03-04 18:07:00,
2013-03-04 13:12:00,42.8,19.6,29.56,North,0,2.0,7.0,39,0.00,,,0.00,meteohub,2013-03-04 18:12:00,
2013-03-04 13:17:00,42.6,19.9,29.56,East,90,2.0,7.0,40,0.00,,,0.00,meteohub,2013-03-04 18:17:00,
2013-03-04 13:22:00,42.6,20.5,29.56,NE,45,4.0,7.0,41,0.00,,,0.00,meteohub,2013-03-04 18:22:00,
2013-03-04 13:27:00,43.0,20.3,29.55,East,90,2.0,7.0,40,0.00,,,0.00,meteohub,2013-03-04 18:27:00,
2013-03-04 13:29:00,43.0,20.3,29.55,SE,135,1.0,7.0,40,0.00,,,0.00,meteohub,2013-03-04 18:29:00,
2013-03-04 13:30:00,43.2,20.5,29.56,WNW,293,1.0,7.0,40,0.00,,,0.00,meteohub,2013-03-04 18:30:00,
2013-03-04 13:31:00,43.3,20.7,29.55,North,0,2.0,5.0,40,0.00,,,0.00,meteohub,2013-03-04 18:31:00,
2013-03-04 13:32:00,43.3,20.7,29.56,North,0,3.0,5.0,40,0.00,,,0.00,meteohub,2013-03-04 18:32:00,
2013-03-04 13:37:00,43.2,20.5,29.56,SE,135,1.0,4.0,40,0.00,,,0.00,meteohub,2013-03-04 18:37:00,
2013-03-04 13:42:00,43.0,20.3,29.56,NE,45,2.0,4.0,40,0.00,,,0.00,meteohub,2013-03-04 18:42:00,
2013-03-04 13:47:00,42.8,20.1,29.55,NE,45,2.0,4.0,40,0.00,,,0.00,meteohub,2013-03-04 18:47:00,
2013-03-04 13:52:00,43.2,21.0,29.56,East,90,2.0,4.0,41,0.00,,,0.00,meteohub,2013-03-04 18:52:00,
2013-03-04 13:58:00,43.2,20.5,29.55,SE,135,2.0,4.0,40,0.00,,,0.00,meteohub,2013-03-04 18:58:00,
2013-03-04 14:03:00,43.2,20.5,29.56,South,180,4.0,4.0,40,0.00,,,0.00,meteohub,2013-03-04 19:03:00,
2013-03-04 14:08:00,43.0,20.8,29.55,SE,135,6.0,6.0,41,0.00,,,0.00,meteohub,2013-03-04 19:08:00,
2013-03-04 14:13:00,43.3,21.2,29.56,NE,45,2.0,4.0,41,0.00,,,0.00,meteohub,2013-03-04 19:13:00,
2013-03-04 14:18:00,44.1,21.9,29.55,South,180,2.0,6.0,41,0.00,,,0.00,meteohub,2013-03-04 19:18:00,
2013-03-04 14:23:00,44.4,22.1,29.55,East,90,2.0,6.0,41,0.00,,,0.00,meteohub,2013-03-04 19:23:00,
2013-03-04 14:28:00,44.4,21.6,29.55,West,270,2.0,5.0,40,0.00,,,0.00,meteohub,2013-03-04 19:28:00,
2013-03-04 14:33:00,44.2,21.4,29.55,NE,45,2.0,6.0,40,0.00,,,0.00,meteohub,2013-03-04 19:33:00,
2013-03-04 14:38:00,44.1,21.2,29.55,NW,315,2.0,6.0,40,0.00,,,0.00,meteohub,2013-03-04 19:38:00,
2013-03-04 14:44:00,43.7,21.6,29.56,North,0,4.0,6.0,41,0.00,,,0.00,meteohub,2013-03-04 19:44:00,
2013-03-04 14:49:00,42.6,21.2,29.57,ESE,113,4.0,4.0,42,0.00,,,0.00,meteohub,2013-03-04 19:49:00,
2013-03-04 14:54:00,42.4,21.0,29.56,NW,315,3.0,6.0,42,0.00,,,0.00,meteohub,2013-03-04 19:54:00,
2013-03-04 14:59:00,42.4,21.6,29.56,WNW,293,1.0,6.0,43,0.00,,,0.00,meteohub,2013-03-04 19:59:00,
2013-03-04 15:04:00,42.4,21.6,29.56,West,270,3.0,5.0,43,0.00,,,0.00,meteohub,2013-03-04 20:04:00,
2013-03-04 15:09:00,42.1,21.2,29.56,NW,315,2.0,4.0,43,0.00,,,0.00,meteohub,2013-03-04 20:09:00,
2013-03-04 15:14:00,42.3,21.4,29.56,North,0,3.0,4.0,43,0.00,,,0.00,meteohub,2013-03-04 20:14:00,
2013-03-04 15:19:00,41.9,21.6,29.57,North,0,2.0,4.0,44,0.00,,,0.00,meteohub,2013-03-04 20:19:00,
2013-03-04 15:24:00,41.4,20.5,29.56,NW,315,4.0,5.0,43,0.00,,,0.00,meteohub,2013-03-04 20:24:00,
2013-03-04 15:30:00,41.2,20.8,29.57,NW,315,2.0,7.0,44,0.00,,,0.00,meteohub,2013-03-04 20:30:00,
2013-03-04 15:35:00,41.2,21.4,29.56,SW,225,2.0,7.0,45,0.00,,,0.00,meteohub,2013-03-04 20:35:00,
2013-03-04 15:40:00,40.8,21.6,29.56,NW,315,2.0,4.0,46,0.00,,,0.00,meteohub,2013-03-04 20:40:00,
2013-03-04 15:45:00,40.6,21.9,29.57,North,0,2.0,4.0,47,0.00,,,0.00,meteohub,2013-03-04 20:45:00,
2013-03-04 15:50:00,40.6,22.5,29.56,West,270,3.0,4.0,48,0.00,,,0.00,meteohub,2013-03-04 20:50:00,
2013-03-04 15:55:00,40.1,22.5,29.57,South,180,2.0,7.0,49,0.00,,,0.00,meteohub,2013-03-04 20:55:00,
2013-03-04 16:00:00,39.7,23.2,29.57,NW,315,2.0,7.0,51,0.00,,,0.00,meteohub,2013-03-04 21:00:00,
2013-03-04 16:05:00,39.2,22.6,29.57,East,90,2.0,7.0,51,0.00,,,0.00,meteohub,2013-03-04 21:05:00,
2013-03-04 16:10:00,39.0,22.8,29.57,SE,135,2.0,4.0,52,0.00,,,0.00,meteohub,2013-03-04 21:10:00,
2013-03-04 16:15:00,38.5,22.5,29.57,North,0,2.0,4.0,52,0.00,,,0.00,meteohub,2013-03-04 21:15:00,
2013-03-04 16:20:00,38.3,22.3,29.58,NW,315,2.0,4.0,52,0.00,,,0.00,meteohub,2013-03-04 21:20:00,
2013-03-04 16:26:00,38.1,22.5,29.58,NE,45,2.0,3.0,53,0.00,,,0.00,meteohub,2013-03-04 21:26:00,
2013-03-04 16:31:00,38.1,22.5,29.58,East,90,2.0,3.0,53,0.00,,,0.00,meteohub,2013-03-04 21:31:00,
2013-03-04 16:36:00,37.9,22.3,29.58,NW,315,2.0,3.0,53,0.00,,,0.00,meteohub,2013-03-04 21:36:00,
2013-03-04 16:41:00,37.9,22.3,29.58,ESE,113,1.0,4.0,53,0.00,,,0.00,meteohub,2013-03-04 21:41:00,
2013-03-04 16:46:00,37.9,22.3,29.58,West,270,3.0,4.0,53,0.00,,,0.00,meteohub,2013-03-04 21:46:00,
2013-03-04 16:51:00,37.9,22.3,29.59,North,0,0.0,4.0,53,0.00,,,0.00,meteohub,2013-03-04 21:51:00,
2013-03-04 16:56:00,37.9,22.3,29.59,West,270,1.0,3.0,53,0.00,,,0.00,meteohub,2013-03-04 21:56:00,
2013-03-04 17:01:00,37.9,22.3,29.59,NE,45,2.0,3.0,53,0.00,,,0.00,meteohub,2013-03-04 22:01:00,
2013-03-04 17:06:00,37.8,22.1,29.59,NW,315,1.0,4.0,53,0.00,,,0.00,meteohub,2013-03-04 22:06:00,
2013-03-04 17:12:00,37.8,22.6,29.59,North,0,2.0,4.0,54,0.00,,,0.00,meteohub,2013-03-04 22:12:00,
2013-03-04 17:17:00,37.6,22.5,29.59,North,0,2.0,4.0,54,0.00,,,0.00,meteohub,2013-03-04 22:17:00,
2013-03-04 17:22:00,37.2,20.8,29.60,South,180,3.0,4.0,51,0.00,,,0.00,meteohub,2013-03-04 22:22:00,
2013-03-04 17:27:00,37.0,21.0,29.60,East,90,2.0,4.0,52,0.00,,,0.00,meteohub,2013-03-04 22:27:00,
2013-03-04 17:32:00,36.7,20.7,29.60,NE,45,2.0,4.0,52,0.00,,,0.00,meteohub,2013-03-04 22:32:00,
2013-03-04 17:37:00,36.7,21.2,29.60,NW,315,2.0,3.0,53,0.00,,,0.00,meteohub,2013-03-04 22:37:00,
2013-03-04 17:42:00,36.5,21.0,29.61,East,90,2.0,2.0,53,0.00,,,0.00,meteohub,2013-03-04 22:42:00,
2013-03-04 17:47:00,36.5,21.0,29.61,NE,45,4.0,4.0,53,0.00,,,0.00,meteohub,2013-03-04 22:47:00,
2013-03-04 17:52:00,36.3,20.8,29.62,West,270,2.0,8.0,53,0.00,,,0.00,meteohub,2013-03-04 22:52:00,
2013-03-04 17:57:00,36.0,21.0,29.62,NE,45,3.0,8.0,54,0.00,,,0.00,meteohub,2013-03-04 22:57:00,
2013-03-04 18:02:00,35.8,20.8,29.62,NW,315,2.0,8.0,54,0.00,,,0.00,meteohub,2013-03-04 23:02:00,
2013-03-04 18:08:00,35.6,21.4,29.63,North,0,2.0,4.0,56,0.00,,,0.00,meteohub,2013-03-04 23:08:00,
2013-03-04 18:13:00,35.2,21.9,29.63,North,0,2.0,3.0,58,0.00,,,0.00,meteohub,2013-03-04 23:13:00,
2013-03-04 18:18:00,35.1,22.6,29.63,NE,45,2.0,3.0,60,0.00,,,0.00,meteohub,2013-03-04 23:18:00,
2013-03-04 18:23:00,34.7,22.3,29.64,West,270,4.0,4.0,60,0.00,,,0.00,meteohub,2013-03-04 23:23:00,
2013-03-04 18:28:00,34.5,22.5,29.63,SE,135,3.0,4.0,61,0.00,,,0.00,meteohub,2013-03-04 23:28:00,
2013-03-04 18:33:00,34.3,23.0,29.64,East,90,2.0,4.0,63,0.00,,,0.00,meteohub,2013-03-04 23:33:00,
2013-03-04 18:38:00,34.2,23.2,29.64,NNW,338,2.0,4.0,64,0.00,,,0.00,meteohub,2013-03-04 23:38:00,
2013-03-04 18:43:00,33.8,23.4,29.65,WNW,293,1.0,3.0,65,0.00,,,0.00,meteohub,2013-03-04 23:43:00,
2013-03-04 18:49:00,33.6,23.9,29.64,East,90,2.0,2.0,67,0.00,,,0.00,meteohub,2013-03-04 23:49:00,
2013-03-04 18:54:00,33.6,24.3,29.64,NW,315,2.0,2.0,68,0.00,,,0.00,meteohub,2013-03-04 23:54:00,
2013-03-04 18:59:00,33.4,24.4,29.65,NW,315,2.0,2.0,69,0.00,,,0.00,meteohub,2013-03-04 23:59:00,
2013-03-04 19:04:00,33.4,24.4,29.65,NW,315,0.0,2.0,69,0.00,,,0.00,meteohub,2013-03-05 00:04:00,
2013-03-04 19:09:00,33.4,24.4,29.65,East,90,2.0,2.0,69,0.00,,,0.00,meteohub,2013-03-05 00:09:00,
2013-03-04 19:14:00,33.3,24.6,29.65,NE,45,1.0,2.0,70,0.00,,,0.00,meteohub,2013-03-05 00:14:00,
2013-03-04 19:19:00,33.3,24.6,29.65,North,0,2.0,2.0,70,0.00,,,0.00,meteohub,2013-03-05 00:19:00,
2013-03-04 19:24:00,33.1,24.4,29.65,North,0,1.0,2.0,70,0.00,,,0.00,meteohub,2013-03-05 00:24:00,
2013-03-04 19:29:00,33.1,24.4,29.65,South,180,0.0,2.0,70,0.00,,,0.00,meteohub,2013-03-05 00:29:00,
2013-03-04 19:34:00,33.1,24.4,29.65,NW,315,2.0,2.0,70,0.00,,,0.00,meteohub,2013-03-05 00:34:00,
2013-03-04 19:39:00,33.1,24.4,29.65,WSW,248,2.0,2.0,70,0.00,,,0.00,meteohub,2013-03-05 00:39:00,
2013-03-04 19:45:00,33.1,24.4,29.65,NE,45,0.0,3.0,70,0.00,,,0.00,meteohub,2013-03-05 00:45:00,
2013-03-04 19:50:00,33.1,24.4,29.66,East,90,2.0,3.0,70,0.00,,,0.00,meteohub,2013-03-05 00:50:00,
2013-03-04 19:55:00,33.1,24.4,29.66,North,0,0.0,2.0,70,0.00,,,0.00,meteohub,2013-03-05 00:55:00,
2013-03-04 20:00:00,33.1,24.1,29.66,South,180,4.0,4.0,69,0.00,,,0.00,meteohub,2013-03-05 01:00:00,
2013-03-04 20:05:00,33.3,24.3,29.65,West,270,1.0,4.0,69,0.00,,,0.00,meteohub,2013-03-05 01:05:00,
2013-03-04 20:10:00,33.3,23.9,29.66,NE,45,1.0,4.0,68,0.00,,,0.00,meteohub,2013-03-05 01:10:00,
2013-03-04 20:15:00,33.3,23.9,29.66,North,0,0.0,4.0,68,0.00,,,0.00,meteohub,2013-03-05 01:15:00,
2013-03-04 20:20:00,33.3,23.5,29.66,North,0,1.0,2.0,67,0.00,,,0.00,meteohub,2013-03-05 01:20:00,
2013-03-04 20:25:00,33.4,23.4,29.66,East,90,0.0,3.0,66,0.00,,,0.00,meteohub,2013-03-05 01:25:00,
2013-03-04 20:30:00,33.4,23.4,29.66,NNE,23,2.0,3.0,66,0.00,,,0.00,meteohub,2013-03-05 01:30:00,
2013-03-04 20:36:00,33.4,23.0,29.66,NE,45,2.0,3.0,65,0.00,,,0.00,meteohub,2013-03-05 01:36:00,
2013-03-04 20:41:00,33.6,22.8,29.67,NE,45,2.0,2.0,64,0.00,,,0.00,meteohub,2013-03-05 01:41:00,
2013-03-04 20:46:00,33.6,22.5,29.67,NW,315,2.0,2.0,63,0.00,,,0.00,meteohub,2013-03-05 01:46:00,
2013-03-04 20:51:00,33.8,22.1,29.67,NNE,23,1.0,2.0,62,0.00,,,0.00,meteohub,2013-03-05 01:51:00,
2013-03-04 20:56:00,33.8,21.7,29.68,NW,315,1.0,3.0,61,0.00,,,0.00,meteohub,2013-03-05 01:56:00,
2013-03-04 21:01:00,33.8,21.7,29.67,North,0,2.0,3.0,61,0.00,,,0.00,meteohub,2013-03-05 02:01:00,
2013-03-04 21:06:00,33.8,21.7,29.68,NW,315,0.0,5.0,61,0.00,,,0.00,meteohub,2013-03-05 02:06:00,
2013-03-04 21:11:00,33.8,21.7,29.68,NNE,23,2.0,5.0,61,0.00,,,0.00,meteohub,2013-03-05 02:11:00,
2013-03-04 21:16:00,33.8,21.4,29.68,NNW,338,2.0,5.0,60,0.00,,,0.00,meteohub,2013-03-05 02:16:00,
2013-03-04 21:21:00,33.8,21.4,29.68,East,90,1.0,5.0,60,0.00,,,0.00,meteohub,2013-03-05 02:21:00,
2013-03-04 21:26:00,33.8,21.4,29.68,NE,45,2.0,4.0,60,0.00,,,0.00,meteohub,2013-03-05 02:26:00,
2013-03-04 21:32:00,33.8,21.4,29.68,North,0,1.0,3.0,60,0.00,,,0.00,meteohub,2013-03-05 02:32:00,
2013-03-04 21:37:00,33.8,21.4,29.68,SE,135,1.0,3.0,60,0.00,,,0.00,meteohub,2013-03-05 02:37:00,
2013-03-04 21:42:00,33.8,21.0,29.68,South,180,3.0,3.0,59,0.00,,,0.00,meteohub,2013-03-05 02:42:00,
2013-03-04 21:47:00,33.6,21.2,29.68,NW,315,2.0,3.0,60,0.00,,,0.00,meteohub,2013-03-05 02:47:00,
2013-03-04 21:52:00,33.6,21.2,29.68,South,180,1.0,3.0,60,0.00,,,0.00,meteohub,2013-03-05 02:52:00,
2013-03-04 21:57:00,33.4,21.0,29.68,SE,135,2.0,3.0,60,0.00,,,0.00,meteohub,2013-03-05 02:57:00,
2013-03-04 22:02:00,33.4,21.0,29.69,NW,315,1.0,2.0,60,0.00,,,0.00,meteohub,2013-03-05 03:02:00,
2013-03-04 22:07:00,33.4,21.0,29.69,South,180,0.0,2.0,60,0.00,,,0.00,meteohub,2013-03-05 03:07:00,
2013-03-04 22:12:00,33.4,21.0,29.69,NE,45,1.0,2.0,60,0.00,,,0.00,meteohub,2013-03-05 03:12:00,
2013-03-04 22:17:00,33.3,20.8,29.69,East,90,2.0,2.0,60,0.00,,,0.00,meteohub,2013-03-05 03:17:00,
2013-03-04 22:22:00,33.4,21.0,29.69,West,270,2.0,2.0,60,0.00,,,0.00,meteohub,2013-03-05 03:22:00,
2013-03-04 22:27:00,33.4,21.0,29.70,NE,45,2.0,2.0,60,0.00,,,0.00,meteohub,2013-03-05 03:27:00,
2013-03-04 22:32:00,33.4,21.0,29.69,North,0,2.0,3.0,60,0.00,,,0.00,meteohub,2013-03-05 03:32:00,
2013-03-04 22:37:00,33.3,20.5,29.69,NE,45,2.0,3.0,59,0.00,,,0.00,meteohub,2013-03-05 03:37:00,
2013-03-04 22:42:00,33.3,20.5,29.70,North,0,1.0,3.0,59,0.00,,,0.00,meteohub,2013-03-05 03:42:00,
2013-03-04 22:47:00,33.3,20.8,29.70,North,0,1.0,2.0,60,0.00,,,0.00,meteohub,2013-03-05 03:47:00,
2013-03-04 22:52:00,33.3,20.5,29.70,NNW,338,1.0,2.0,59,0.00,,,0.00,meteohub,2013-03-05 03:52:00,
2013-03-04 22:57:00,33.1,20.3,29.70,SE,135,0.0,2.0,59,0.00,,,0.00,meteohub,2013-03-05 03:57:00,
2013-03-04 23:02:00,33.1,20.3,29.70,East,90,2.0,2.0,59,0.00,,,0.00,meteohub,2013-03-05 04:02:00,
2013-03-04 23:07:00,33.1,20.7,29.70,North,0,2.0,2.0,60,0.00,,,0.00,meteohub,2013-03-05 04:07:00,
2013-03-04 23:12:00,32.9,20.5,29.70,East,90,1.0,3.0,60,0.00,,,0.00,meteohub,2013-03-05 04:12:00,
2013-03-04 23:17:00,32.9,20.1,29.70,NW,315,2.0,3.0,59,0.00,,,0.00,meteohub,2013-03-05 04:17:00,
2013-03-04 23:22:00,32.9,20.5,29.70,South,180,2.0,3.0,60,0.00,,,0.00,meteohub,2013-03-05 04:22:00,
2013-03-04 23:27:00,32.9,20.5,29.70,North,0,2.0,3.0,60,0.00,,,0.00,meteohub,2013-03-05 04:27:00,
2013-03-04 23:32:00,32.9,20.5,29.70,North,0,0.0,3.0,60,0.00,,,0.00,meteohub,2013-03-05 04:32:00,
2013-03-04 23:37:00,32.9,20.5,29.70,NE,45,2.0,3.0,60,0.00,,,0.00,meteohub,2013-03-05 04:37:00,
2013-03-04 23:42:00,32.7,20.3,29.70,West,270,2.0,3.0,60,0.00,,,0.00,meteohub,2013-03-05 04:42:00,
2013-03-04 23:47:00,32.5,20.1,29.70,NE,45,2.0,3.0,60,0.00,,,0.00,meteohub,2013-03-05 04:47:00,
2013-03-04 23:52:00,32.4,19.9,29.70,WNW,293,1.0,6.0,60,0.00,,,0.00,meteohub,2013-03-05 04:52:00,
2013-03-04 23:57:00,32.4,19.9,29.71,NE,45,1.0,6.0,60,0.00,,,0.00,meteohub,2013-03-05 04:57:00,